發表時間 文章標題 人氣 留言
2017-10-17 心得SEIKO 神話之殿經典羅馬時標男錶(SGEC13P1)-白-35mm開箱文 (0) (0)
2017-10-17 分享SEIKO 銀河時空知性時尚男錶(SUR061P1)-黑-41mm排行榜 (0) (0)
2017-10-17 使用心得SEIKO 銀河巨匠知性時尚男錶(SUR155P1)-黑-42mm部落客 (0) (0)
2017-10-17 那裡買SEIKO 銀河巨匠知性時尚男錶(SUR153P1)-藍-42mm比較 (0) (0)
2017-10-16 比較SEIKO 銀河巨匠知性時尚男錶(SUR151P1)-銀-42mm排行榜 (0) (0)
2017-10-16 那裡買SEIKO精工 CS系列城市戀人腕錶(SGEH68P1)-白x雙色版-41mm比較 (0) (0)
2017-10-16 好用嗎SEIKO精工 CS系列城市戀人皮帶腕錶(SGEH69P1)-白-41mm評價 (0) (0)
2017-10-16 比較SEIKO精工 CS系列城市戀人腕錶(SGEH67P1)-白-41mm好用嗎 (0) (0)
2017-10-16 評比SEIKO 雅痞經典男錶 (SGEH07P1)-米黃色面X銀色-42mm分享 (0) (0)
2017-10-16 排行榜SEIKO 天作之合藍寶石水晶鏡面男錶(SGEH44P1)-銀白x金框-40mm開箱文 (0) (0)
2017-10-15 排行榜SEIKO 風格詩人知性時尚男錶(SUR160P1)-白x金框-42mm最便宜 (0) (0)
2017-10-15 價格SEIKO Premier 雙逆跳計時功能腕錶(SPC065J1 )-銀-40mm特賣會 (0) (0)
2017-10-15 心得SEIKO 城市冒險家世界時間鬧鈴男錶(SNJ011P2)-黑-38mm部落客 (0) (0)
2017-10-15 推薦SEIKO Sportura兩地時間飆速賽車計時碼錶排行榜 (0) (0)
2017-10-15 心得SEIKO Sportura GMT 大錶徑人工動能運動錶(SUN015P1)-黑-45mm推薦 (0) (0)
2017-10-15 排行榜SEIKO Sportura狂飆終點人動能碼錶計時錶(SNL017P1)-黑-43mm那裡買 (0) (0)
2017-10-14 推薦SEIKO CS系列太陽能都會腕錶(SNE385P1)-白-42mm好用嗎 (0) (0)
2017-10-14 評價SEIKO CS系列太陽能都會腕錶(SNE388P1)-白x雙色版-42mm價格 (0) (0)
2017-10-14 特賣會SEIKO CS系列太陽能都會腕錶(SNE390P1)-白x鍍金-42mm評價 (0) (0)
2017-10-14 評比SEIKO SOLAR 學院風尚太陽能男錶(SUP876P1)-香檳淺灰x咖啡-38mm使用心得 (0) (0)
2017-10-14 開箱文SEIKO SOLAR 學院風尚太陽能腕錶(SUP878P1)-白-38mm開箱文 (0) (0)
2017-10-14 好用嗎SEIKO 簡約時尚環保太陽能男錶((SNE039P1))-黑推薦 (0) (0)
2017-10-13 價格SEIKO 鈦都會太陽能時尚腕錶(SNE409P1)-灰x雙色版-40mm比較 (0) (0)
2017-10-13 分享SEIKO 精工 紳士太陽能時尚腕錶(SNE361P1)-藍-44mm排行榜 (0) (0)
2017-10-13 心得分享SEIKO 精工 紳士太陽能時尚腕錶(SNE359P2)-銀-44mm推薦 (0) (0)
2017-10-13 那裡買SEIKO 太陽能深海威龍潛水200米潛水錶(SNE107P2)-黑-41mm推薦 (0) (0)
2017-10-13 推薦SEIKO Sola 交響情人夢太陽能男錶(SUP870P1)-金-38mm心得分享 (0) (0)
2017-10-13 推薦SEIKO 都會簡約人動電能腕錶(SKA461P1)-白-40mm價格 (0) (0)
2017-10-12 心得分享SEIKO Kinetic 時尚人動電能腕錶(SKA553P1 )-黑-42mm那裡買 (0) (0)
2017-10-12 好用嗎SEIKO Kinetic 專業萬年曆大視窗腕錶(SNP062J1)-黑-42mm價格 (0) (0)
2017-10-12 開箱文SEIKO Kinetic 互動式人動電能時尚腕錶(SRG009J1)-黑-42mm分享 (0) (0)
2017-10-12 心得分享SEIKO Kinetic 互動式人動電能時尚腕錶(SRG007J1 )-銀-42mm開箱文 (0) (0)
2017-10-12 排行榜SEIKO Kinetic 怒海征服者潛水200米腕錶(SKA577P1 )-IP黑-44mm比較 (0) (0)
2017-10-12 最便宜SEIKO Kinetic 互動式人動電能時尚腕錶(SRG012J1)-藍-42mm推薦 (0) (0)
2017-10-11 評價SEIKO Sportura 人動電能GMT霸氣腕錶(SUN015J1)-黑-銀-44mm好用嗎 (0) (0)
2017-10-11 分享SEIKO Kinetic 極地傳說霸氣人動電能腕錶(SMY147P1)-銀-42mm價格 (0) (0)
2017-10-11 部落客SEIKO Kinetic 極地傳說人動電能腕錶(SMY153P1)-IP黑-42mm分享 (0) (0)
2017-10-11 部落客SEIKO 精工 KINETIC 人動電能200米潛水腕錶(SKA371P1)-黑-40mm分享 (0) (0)
2017-10-11 使用心得SEIKO KINETC 時尚潮流人動電能男錶(SKA659P1)-IP黑框-42mm評價 (0) (0)
2017-10-11 最便宜SEIKO Kinetic 日曆人動電能腕錶(SRN073P1)-銀-42mm價格 (0) (0)
2017-10-10 推薦SEIKO Kinetic 日曆人動電能腕錶(SRN078P1)-黑x玫瑰金框-42mm排行榜 (0) (0)
2017-10-10 部落客SEIKO KINETIC 都會人動電能腕錶(SKA719P1)-黑-42mm心得 (0) (0)
2017-10-10 價格SEIKO KINETIC 都會人動電能腕錶(SKA717P1)-銀-42mm心得 (0) (0)
2017-10-10 開箱文SEIKO Kinetic 鈦 科技人動電能腕錶(SKA713P1)-銀灰-43mm排行榜 (0) (0)
2017-10-10 評價SEIKO KINETC 領袖時尚人動電能腕錶(SMY119P1)-黑-40mm心得 (0) (0)
2017-10-10 部落客SEIKO KINETC 領袖時尚人動電能男錶(SMY117P1)-白-40mm最便宜 (0) (0)
2017-10-09 最便宜SEIKO Kinetic 鈦 科技人動電能腕錶(SKA715P1)-黑x銀灰-43mm使用心得 (0) (0)
2017-10-09 心得分享SEIKO ARCTURA 銀河騎士人動電能碼錶計時男錶(SNL001P1)-白-40mm部落客 (0) (0)
2017-10-09 價格SEIKO KINETIC 紳士型男人動電能腕錶(SKA739P1)-銀-44mm心得 (0) (0)
2017-10-09 推薦SEIKO KINETIC 紳士型男人動電能腕錶(SKA743P1)-銀x黑-44mm好用嗎 (0) (0)
找更多相關文章與討論